Weather History for LTCC - March, 2013

Change the Weather History Date:

Wednesday, March 6, 2013

  Actual Average Record
Temperature  
Mean Temperature 37 °F -  
Max Temperature 46 °F 60 °F - ()
Min Temperature 28 °F 40 °F - ()
Degree Days  
Heating Degree Days 28    
Moisture  
Dew Point 8 °F    
Average Humidity 29    
Maximum Humidity 47    
Minimum Humidity 11    
Precipitation  
Precipitation 0.00 in 0.09 in - ()
Sea Level Pressure  
Sea Level Pressure 30.12 in    
Wind  
Wind Speed 16 mph ()    
Max Wind Speed 29 mph    
Max Gust Speed 41 mph    
Visibility 10.5 miles    
Events      
T = Trace of Precipitation, MM = Missing Value Source: Averaged Metar Reports

Daily Weather History Graph

Daily Weather History Graph

Search for Another Location

Airport or City:

Trip Planner

Search our weather history database for the weather conditions in past years. The results will help you decide how hot, cold, wet, or windy it might be!

Date:

Astronomy

Mar. 06, 2013 Rise Set
Actual Time 5:43 AM EET 5:17 PM EET
Civil Twilight 5:17 AM EET 5:43 PM EET
Nautical Twilight 4:47 AM EET 6:14 PM EET
Astronomical Twilight 4:16 AM EET 6:44 PM EET
Moon 1:28 AM EET (3/6) 11:40 AM EET (3/6)
Length of Visible Light 12h 26m
Length of Day
11h 33m
Waning Crescent, 33% of the Moon is Illuminated
Mar 6
Waning Crescent
Mar 11
New
Mar 19
First Quarter
Mar 27
Full
Apr 3
Last Quarter

Hourly Weather History & Observations

Time (EET) Temp. Windchill Dew Point Humidity Pressure Visibility Wind Dir Wind Speed Gust Speed Precip Events Conditions
12:20 AM 33.8 °F 22.8 °F 12.2 °F 41% 30.01 in - NW 18.4 mph - N/A   Clear
12:50 AM 33.8 °F 22.8 °F 12.2 °F 41% 30.01 in - NNW 18.4 mph - N/A   Clear
1:20 AM 33.8 °F 22.8 °F 12.2 °F 41% 30.01 in - NNW 18.4 mph - N/A   Clear
1:50 AM 33.8 °F 24.3 °F 12.2 °F 41% 30.01 in - NNW 13.8 mph - N/A   Clear
2:00 AM 33 °F - 10 °F 25% 30.06 in 12 mi NNW 13.8 mph - -  
2:20 AM 33.8 °F 25.8 °F 10.4 °F 38% 30.01 in - NNW 10.4 mph - N/A   Clear
2:50 AM 33.8 °F 24.8 °F 8.6 °F 35% 30.04 in - NNW 12.7 mph - N/A   Clear
3:20 AM 32.0 °F 23.6 °F 10.4 °F 41% 30.04 in - NNW 10.4 mph - N/A   Clear
3:50 AM 33.8 °F 22.5 °F 6.8 °F 32% 30.04 in - North 19.6 mph - N/A   Clear
4:20 AM 33.8 °F 22.5 °F 5.0 °F 30% 30.04 in - North 19.6 mph - N/A   Clear
4:50 AM 33.8 °F 23.9 °F 6.8 °F 32% 30.06 in - North 15.0 mph - N/A   Clear
5:20 AM 30.2 °F 22.6 °F 12.2 °F 47% 30.06 in - NNW 8.1 mph - N/A   Clear
5:50 AM 33.8 °F 23.2 °F 5.0 °F 30% 30.06 in - North 17.3 mph - N/A   Clear
6:20 AM 33.8 °F 23.2 °F 5.0 °F 30% 30.09 in - North 17.3 mph - N/A   Clear
6:50 AM 35.6 °F 24.5 °F 5.0 °F 28% 30.09 in - North 20.7 mph - N/A   Clear
7:20 AM 35.6 °F 23.7 °F 6.8 °F 30% 30.09 in - North 24.2 mph - N/A   Clear
7:50 AM 37.4 °F 26.6 °F 5.0 °F 26% 30.12 in - North 21.9 mph - N/A   Clear
8:00 AM 37 °F - 2 °F 11% 30.18 in 6 mi North 21.9 mph - -  
8:20 AM 39.2 °F 28.7 °F 6.8 °F 26% 30.12 in - North 23.0 mph 41.4 mph N/A   Clear
8:50 AM 39.2 °F 27.8 °F 5.0 °F 24% 30.12 in - North 27.6 mph 40.3 mph N/A   Clear
9:20 AM 41.0 °F 30.0 °F 5.0 °F 23% 30.12 in - North 28.8 mph - N/A   Clear
9:50 AM 41.0 °F 31.1 °F 5.0 °F 23% 30.12 in - North 23.0 mph - N/A   Clear
10:20 AM 42.8 °F 34.0 °F 6.8 °F 23% 30.12 in - North 20.7 mph 32.2 mph N/A   Clear
10:50 AM 42.8 °F 33.8 °F 10.4 °F 27% 30.12 in - North 21.9 mph - N/A   Clear
11:20 AM 44.6 °F 36.4 °F 8.6 °F 23% 30.12 in - North 20.7 mph - N/A   Clear
11:50 AM 44.6 °F 36.1 °F 5.0 °F 20% 30.12 in - North 21.9 mph - N/A   Clear
12:20 PM 44.6 °F 36.6 °F 6.8 °F 21% 30.09 in - North 19.6 mph - N/A   Clear
12:50 PM 46.4 °F 38.5 °F 8.6 °F 22% 30.09 in - North 21.9 mph - N/A   Clear
1:20 PM 46.4 °F 39.2 °F 10.4 °F 23% 30.09 in - North 18.4 mph - N/A   Clear
1:50 PM 46.4 °F 38.7 °F 14.0 °F 27% 30.09 in - North 20.7 mph - N/A   Clear
2:00 PM 47 °F - 11 °F 12% 30.16 in 12 mi North 20.7 mph - -  
2:20 PM 46.4 °F 39.0 °F 12.2 °F 25% 30.09 in - North 19.6 mph - N/A   Clear
2:50 PM 46.4 °F 39.0 °F 10.4 °F 23% 30.09 in - North 19.6 mph 31.1 mph N/A   Clear
3:20 PM 44.6 °F 36.6 °F 6.8 °F 21% 30.09 in - North 19.6 mph 33.4 mph N/A   Clear
3:50 PM 44.6 °F 35.9 °F 6.8 °F 21% 30.12 in - North 23.0 mph - N/A   Clear
4:20 PM 42.8 °F 33.8 °F 6.8 °F 23% 30.12 in - North 21.9 mph - N/A   Clear
4:50 PM 42.8 °F 33.5 °F 6.8 °F 23% 30.12 in - North 23.0 mph 34.5 mph N/A   Clear
5:20 PM 41.0 °F 32.2 °F 8.6 °F 26% 30.15 in - North 18.4 mph - N/A   Clear
5:50 PM 39.2 °F 30.5 °F 8.6 °F 28% 30.15 in - North 16.1 mph - N/A   Clear
6:20 PM 39.2 °F 29.8 °F 8.6 °F 28% 30.18 in - North 18.4 mph - N/A   Clear
6:50 PM 37.4 °F 28.2 °F 8.6 °F 30% 30.18 in - North 16.1 mph - N/A   Clear
7:20 PM 37.4 °F 28.9 °F 8.6 °F 30% 30.18 in - North 13.8 mph - N/A   Clear
7:50 PM 37.4 °F 28.5 °F 8.6 °F 30% 30.18 in - North 15.0 mph - N/A   Clear
8:00 PM 37 °F - 6 °F 15% 30.26 in 12 mi North 15.0 mph - -  
8:20 PM 37.4 °F 28.9 °F 6.8 °F 28% 30.18 in - North 13.8 mph - N/A   Clear
8:50 PM 35.6 °F 27.1 °F 8.6 °F 33% 30.21 in - North 12.7 mph - N/A   Clear
9:20 PM 35.6 °F 27.1 °F 8.6 °F 33% 30.21 in - North 12.7 mph - N/A   Clear
9:50 PM 35.6 °F 28.0 °F 6.8 °F 30% 30.21 in - North 10.4 mph - N/A   Clear
10:20 PM 33.8 °F 25.3 °F 8.6 °F 35% 30.21 in - NNW 11.5 mph - N/A   Clear
10:50 PM 33.8 °F 25.3 °F 6.8 °F 32% 30.21 in - North 11.5 mph - N/A   Clear
11:20 PM 33.8 °F 26.4 °F 6.8 °F 32% 30.21 in - North 9.2 mph - N/A   Clear
11:50 PM 30.2 °F 22.6 °F 12.2 °F 47% 30.21 in - NNW 8.1 mph - N/A   Clear